FRS93 EDRY-EDFM

Flight info

Callsign FRS93
Flight time 0h -8m
Altitude 3500
Route EDFM W
Aircraft BE35/L-BDFGLORY/S

Departure

Time 2026-05-08 19:46
Airport Speyer Airfield (EDRY)

Arrival

Time 2026-05-08 19:38
Airport Mannheim-City Airport (EDFM)
Time Latitude Longitude Altitude Speed Heading
2026-05-08 19:38 49.30324 8.45410 329 ft 0 kts 252°
2026-05-08 19:42 49.30235 8.45401 329 ft 21 kts 170°
2026-05-08 19:43 49.30071 8.45466 330 ft 27 kts 167°
2026-05-08 19:43 49.29872 8.45550 332 ft 32 kts 166°
2026-05-08 19:43 49.29673 8.45626 331 ft 8 kts 164°
2026-05-08 19:43 49.29637 8.45640 331 ft 12 kts 166°
2026-05-08 19:44 49.29600 8.45625 330 ft 0 kts 251°
2026-05-08 19:45 49.29611 8.45531 329 ft 20 kts 338°
2026-05-08 19:45 49.29908 8.45428 362 ft 76 kts 346°
2026-05-08 19:46 49.30499 8.45192 688 ft 92 kts 353°
2026-05-08 19:46 49.31217 8.45064 830 ft 117 kts
2026-05-08 19:46 49.31947 8.46781 1348 ft 146 kts 93°
2026-05-08 19:47 49.31988 8.48280 1856 ft 132 kts 62°
2026-05-08 19:47 49.32792 8.48885 2194 ft 144 kts
2026-05-08 19:47 49.33858 8.48390 1743 ft 171 kts 339°
2026-05-08 19:47 49.34846 8.47812 1578 ft 139 kts 347°
2026-05-08 19:48 49.35727 8.47505 1464 ft 121 kts
2026-05-08 19:48 49.36537 8.47407 1253 ft 119 kts 355°
2026-05-08 19:48 49.37278 8.47157 1274 ft 103 kts 345°
2026-05-08 19:48 49.38087 8.46801 1061 ft 136 kts 359°
2026-05-08 19:49 49.39010 8.46677 1120 ft 130 kts
2026-05-08 19:49 49.39895 8.46732 1352 ft 124 kts 354°
2026-05-08 19:49 49.40654 8.45856 1171 ft 148 kts 323°
2026-05-08 19:49 49.41467 8.45044 1171 ft 134 kts 340°
2026-05-08 19:50 49.42358 8.44778 1125 ft 133 kts
2026-05-08 19:50 49.43261 8.44979 1066 ft 129 kts 12°
2026-05-08 19:50 49.44126 8.45267 1101 ft 112 kts
2026-05-08 19:50 49.44720 8.44662 1167 ft 128 kts 293°
2026-05-08 19:51 49.44915 8.43282 1155 ft 127 kts 280°
2026-05-08 19:51 49.44819 8.41900 1086 ft 135 kts 259°
2026-05-08 19:51 49.44829 8.40589 1099 ft 126 kts 312°
2026-05-08 19:51 49.45591 8.40358 937 ft 113 kts 15°
2026-05-08 19:52 49.46310 8.40638 947 ft 93 kts 15°
2026-05-08 19:52 49.46883 8.41005 975 ft 89 kts 41°
2026-05-08 19:52 49.47038 8.41953 964 ft 90 kts 65°
2026-05-08 19:52 49.47227 8.42891 843 ft 99 kts 82°
2026-05-08 19:53 49.47281 8.43923 853 ft 96 kts 80°
2026-05-08 19:53 49.47334 8.44965 822 ft 100 kts 78°
2026-05-08 19:53 49.47390 8.45923 861 ft 79 kts 83°
2026-05-08 19:53 49.47402 8.46711 805 ft 72 kts 85°
2026-05-08 19:54 49.47403 8.47606 786 ft 95 kts 88°
2026-05-08 19:54 49.47353 8.48657 692 ft 96 kts 92°
2026-05-08 19:54 49.47339 8.49603 526 ft 84 kts 86°
2026-05-08 19:54 49.47309 8.50497 364 ft 83 kts 93°
2026-05-08 19:55 49.47277 8.51099 317 ft 40 kts 92°
2026-05-08 19:55 49.47267 8.51574 316 ft 49 kts 91°
2026-05-08 19:55 49.47251 8.51927 317 ft 21 kts 96°
2026-05-08 19:55 49.47283 8.52055 318 ft 12 kts 40°
2026-05-08 19:56 49.47317 8.52153 318 ft 13 kts
2026-05-08 19:56 49.47430 8.52160 318 ft 19 kts
2026-05-08 19:56 49.47537 8.52152 318 ft 10 kts 287°
2026-05-08 19:56 49.47553 8.52081 318 ft 0 kts